TimeEDT,TemperatureF,Dew PointF,Humidity,Sea Level PressureIn,VisibilityMPH,Wind Direction,Wind SpeedMPH,Gust SpeedMPH,PrecipitationIn,Events,Conditions,WindDirDegrees,DateUTC
12:09 AM,62.6,60.8,94,29.91,1.8,Calm,Calm,-,N/A,,Partly Cloudy,0,2012-10-03 04:09:00
12:12 AM,60.8,60.8,100,29.91,0.8,Calm,Calm,-,N/A,,Partly Cloudy,0,2012-10-03 04:12:00
12:20 AM,57.2,57.2,100,29.91,0.2,Calm,Calm,-,N/A,Fog,Fog,0,2012-10-03 04:20:00
12:53 AM,57.9,57.0,97,29.90,0.2,Calm,Calm,-,N/A,Fog,Fog,0,2012-10-03 04:53:00
1:53 AM,61.0,60.1,97,29.92,0.5,SW,3.5,-,0.01,Fog,Fog,220,2012-10-03 05:53:00
2:53 AM,61.0,61.0,100,29.94,0.2,SW,4.6,-,N/A,Fog,Fog,230,2012-10-03 06:53:00
3:03 AM,62.6,60.8,94,29.96,1.2,SW,5.8,-,N/A,,Overcast,220,2012-10-03 07:03:00
3:08 AM,62.6,60.8,94,29.97,2.5,SSW,5.8,-,N/A,,Overcast,210,2012-10-03 07:08:00
3:11 AM,62.6,60.8,94,29.97,3.0,SW,4.6,-,N/A,,Overcast,220,2012-10-03 07:11:00
3:28 AM,62.6,60.8,94,29.97,6.0,SW,5.8,-,N/A,,Overcast,220,2012-10-03 07:28:00
3:53 AM,63.0,61.0,93,29.97,6.0,WSW,8.1,-,N/A,,Overcast,240,2012-10-03 07:53:00
4:05 AM,62.6,60.8,94,29.99,6.0,WSW,5.8,-,N/A,,Overcast,240,2012-10-03 08:05:00
4:26 AM,62.6,60.8,94,30.00,7.0,SW,4.6,-,N/A,,Overcast,230,2012-10-03 08:26:00
4:53 AM,63.0,61.0,93,29.99,8.0,SSW,3.5,-,N/A,,Overcast,210,2012-10-03 08:53:00
5:53 AM,59.0,57.0,93,29.99,6.0,SSE,3.5,-,N/A,,Partly Cloudy,150,2012-10-03 09:53:00
6:18 AM,57.2,55.4,94,30.02,2.5,Calm,Calm,-,N/A,,Mostly Cloudy,0,2012-10-03 10:18:00
6:23 AM,57.2,55.4,94,30.02,1.8,South,3.5,-,N/A,,Mostly Cloudy,170,2012-10-03 10:23:00
6:32 AM,57.2,57.2,100,30.02,2.5,Calm,Calm,-,N/A,,Mostly Cloudy,0,2012-10-03 10:32:00
6:39 AM,59.0,57.2,94,30.02,4.0,Calm,Calm,-,N/A,,Mostly Cloudy,0,2012-10-03 10:39:00
6:53 AM,57.9,57.0,97,30.02,5.0,South,3.5,-,N/A,,Partly Cloudy,170,2012-10-03 10:53:00
7:53 AM,59.0,57.0,93,30.04,7.0,South,3.5,-,N/A,,Scattered Clouds,180,2012-10-03 11:53:00
8:53 AM,63.0,59.0,87,30.06,10.0,South,8.1,-,N/A,,Mostly Cloudy,190,2012-10-03 12:53:00
9:53 AM,-9999,-9999,N/A,30.09,-9999.0,North,-9999.0,-,N/A,,Partly Cloudy,0,2012-10-03 13:53:00
10:53 AM,64.9,54.0,68,30.09,10.0,SSW,11.5,-,N/A,,Partly Cloudy,200,2012-10-03 14:53:00
11:53 AM,64.9,54.0,68,30.10,10.0,SW,8.1,-,N/A,,Scattered Clouds,230,2012-10-03 15:53:00
12:53 PM,66.9,54.0,63,30.11,10.0,SW,10.4,19.6,N/A,,Overcast,230,2012-10-03 16:53:00
1:53 PM,66.9,52.0,59,30.10,10.0,SW,6.9,-,N/A,,Mostly Cloudy,230,2012-10-03 17:53:00
2:53 PM,68.0,53.1,59,30.08,10.0,WSW,9.2,-,N/A,,Mostly Cloudy,240,2012-10-03 18:53:00
3:53 PM,70.0,53.1,55,30.07,10.0,SSW,9.2,-,N/A,,Mostly Cloudy,210,2012-10-03 19:53:00
4:53 PM,69.1,52.0,54,30.08,10.0,SW,8.1,-,N/A,,Mostly Cloudy,220,2012-10-03 20:53:00
5:53 PM,66.9,52.0,59,30.09,10.0,WSW,4.6,-,N/A,,Clear,240,2012-10-03 21:53:00
6:53 PM,64.0,53.1,67,30.10,10.0,Calm,Calm,-,N/A,,Clear,0,2012-10-03 22:53:00
7:53 PM,60.1,54.0,80,30.12,10.0,Calm,Calm,-,N/A,,Clear,0,2012-10-03 23:53:00
8:53 PM,57.9,54.0,87,30.13,10.0,Calm,Calm,-,N/A,,Clear,0,2012-10-04 00:53:00
9:53 PM,57.0,54.0,89,30.15,10.0,Calm,Calm,-,N/A,,Clear,0,2012-10-04 01:53:00
10:53 PM,55.9,53.1,90,30.15,9.0,Calm,Calm,-,N/A,,Clear,0,2012-10-04 02:53:00
11:53 PM,55.0,53.1,93,30.15,7.0,Calm,Calm,-,N/A,,Clear,0,2012-10-04 03:53:00